TimeMST,TemperatureF,Dew PointF,Humidity,Sea Level PressureIn,VisibilityMPH,Wind Direction,Wind SpeedMPH,Gust SpeedMPH,PrecipitationIn,Events,Conditions,WindDirDegrees,DateUTC
12:02 AM,26.6,24.8,93,30.15,1.0,Calm,Calm,-,N/A,,Partly Cloudy,0,2012-11-16 07:02:00
12:11 AM,26.6,24.8,93,30.15,0.5,Calm,Calm,-,N/A,Fog,Light Freezing Fog,0,2012-11-16 07:11:00
12:26 AM,26.6,24.8,93,30.15,1.5,Calm,Calm,-,N/A,,Partly Cloudy,0,2012-11-16 07:26:00
12:32 AM,26.6,24.8,93,30.15,3.0,Calm,Calm,-,N/A,,Partly Cloudy,0,2012-11-16 07:32:00
12:53 AM,26.1,25.0,96,30.20,6.0,Calm,Calm,-,N/A,,Partly Cloudy,0,2012-11-16 07:53:00
1:53 AM,25.0,23.0,92,30.18,8.0,Calm,Calm,-,N/A,,Clear,0,2012-11-16 08:53:00
2:53 AM,26.1,25.0,96,30.15,10.0,Calm,Calm,-,N/A,,Clear,0,2012-11-16 09:53:00
3:53 AM,26.1,25.0,96,30.14,10.0,Calm,Calm,-,N/A,,Clear,0,2012-11-16 10:53:00
4:53 AM,27.0,26.1,96,30.13,10.0,Calm,Calm,-,N/A,,Clear,0,2012-11-16 11:53:00
5:53 AM,27.0,25.0,92,30.12,10.0,NNE,3.5,-,N/A,,Clear,30,2012-11-16 12:53:00
6:53 AM,28.0,26.1,92,30.13,10.0,NW,4.6,-,N/A,,Clear,320,2012-11-16 13:53:00
7:53 AM,28.0,26.1,92,30.14,10.0,Variable,4.6,-,N/A,,Scattered Clouds,0,2012-11-16 14:53:00
8:53 AM,30.0,28.0,92,30.17,10.0,SW,5.8,-,N/A,,Mostly Cloudy,230,2012-11-16 15:53:00
9:53 AM,33.1,30.0,89,30.17,10.0,Calm,Calm,-,N/A,,Mostly Cloudy,0,2012-11-16 16:53:00
10:53 AM,36.0,30.0,79,30.17,10.0,Calm,Calm,-,N/A,,Mostly Cloudy,0,2012-11-16 17:53:00
11:53 AM,39.9,33.1,77,30.14,10.0,Calm,Calm,-,N/A,,Mostly Cloudy,0,2012-11-16 18:53:00
12:53 PM,43.0,33.1,68,30.10,10.0,NE,4.6,-,N/A,,Mostly Cloudy,50,2012-11-16 19:53:00
1:53 PM,48.0,34.0,58,30.08,10.0,Calm,Calm,-,N/A,,Mostly Cloudy,0,2012-11-16 20:53:00
2:53 PM,48.0,34.0,58,30.08,10.0,NW,6.9,-,N/A,,Mostly Cloudy,310,2012-11-16 21:53:00
3:53 PM,48.9,33.1,54,30.06,10.0,South,3.5,-,N/A,,Mostly Cloudy,180,2012-11-16 22:53:00
4:53 PM,46.9,32.0,56,30.08,10.0,SW,5.8,-,N/A,,Overcast,220,2012-11-16 23:53:00
5:53 PM,46.9,30.0,52,30.07,10.0,South,12.7,-,N/A,,Mostly Cloudy,190,2012-11-17 00:53:00
6:53 PM,44.1,30.0,58,30.09,10.0,Calm,Calm,-,N/A,,Partly Cloudy,0,2012-11-17 01:53:00
7:53 PM,39.9,30.0,68,30.11,10.0,Calm,Calm,-,N/A,,Clear,0,2012-11-17 02:53:00
8:53 PM,43.0,28.9,58,30.09,10.0,NE,3.5,-,N/A,,Mostly Cloudy,50,2012-11-17 03:53:00
9:53 PM,45.0,30.0,56,30.09,10.0,Calm,Calm,-,N/A,,Overcast,0,2012-11-17 04:53:00
10:53 PM,45.0,30.0,56,30.08,10.0,Calm,Calm,-,N/A,,Overcast,0,2012-11-17 05:53:00
11:53 PM,44.1,30.0,58,30.08,10.0,NNE,4.6,-,N/A,,Overcast,30,2012-11-17 06:53:00